Location: Unspecified
(50.1700°N, 6.8600°E)
Time: 22:18:03
(UTC+00:00)

Fregat R/B Cluster 11 - Pass Details

Date: 24 January 2019
Orbit: 334 x 17517 km, 64.8° (Epoch: 18 April)

Event Time Altitude Azimuth Distance (km) Brightness Sun altitude
Exits shadow 05:51:36 - 223° (SW) 1,561 5.9 -13.6°
Reaches altitude 10° 05:51:47 10° 223° (SW) 1,465 5.7 -13.5°
Maximum altitude 05:54:27 83° 312° (NW) 608 3.9 -13.1°
Drops below altitude 10° 06:01:25 10° 41° (NE) 3,729 8.4 -12.1°
Sets 06:07:09 0° 43° (NE) 6,346 9.6 -11.2°
